This is the latest recevied weather packets stored in our database for station/object GOLDWX. If no packets are shown the sender has not sent any weather packets the latest 10 day(s).
| Time | Temp. | Humidity | Pressure | Rain* | Wind** | Luminosity | Snow |
|---|---|---|---|---|---|---|---|
| 1777421808 | 16.67° C | 31% | 1016.1 hPa | 0 mm | - | - | - |
| 1777421508 | 17.22° C | 30% | 1016 hPa | 0 mm | - | - | - |
| 1777420906 | 17.22° C | 31% | 1015.9 hPa | 0 mm | - | - | - |
| 1777420605 | 17.22° C | 31% | 1015.8 hPa | 0 mm | - | - | - |
| 1777420003 | 17.22° C | 31% | 1016 hPa | 0 mm | - | - | - |
| 1777419703 | 17.22° C | 31% | 1016 hPa | 0 mm | - | - | - |
| 1777419101 | 17.78° C | 33% | 1016 hPa | 0 mm | - | - | - |
| 1777418800 | 17.22° C | 34% | 1016.2 hPa | 0 mm | - | - | - |
| 1777418198 | 17.22° C | 32% | 1016.2 hPa | 0 mm | - | - | - |
| 1777417898 | 17.22° C | 32% | 1016.2 hPa | 0 mm | - | - | - |
| 1777417296 | 16.67° C | 30% | 1016.3 hPa | 0 mm | - | - | - |
| 1777416995 | 17.22° C | 31% | 1016.4 hPa | 0 mm | - | - | - |
| 1777416393 | 17.22° C | 34% | 1016.4 hPa | 0 mm | - | - | - |
| 1777416092 | 17.22° C | 34% | 1016.6 hPa | 0 mm | - | - | - |
| 1777415491 | 16.11° C | 34% | 1016.7 hPa | 0 mm | - | - | - |
| 1777415190 | 16.11° C | 35% | 1016.7 hPa | 0 mm | - | - | - |
| 1777414588 | 15° C | 36% | 1016.9 hPa | 0 mm | - | - | - |
| 1777414287 | 14.44° C | 37% | 1017 hPa | 0 mm | - | - | - |
| 1777413686 | 13.89° C | 38% | 1017.2 hPa | 0 mm | - | - | - |
| 1777413385 | 13.89° C | 37% | 1017.2 hPa | 0 mm | - | - | - |
| 1777412783 | 13.89° C | 39% | 1017.3 hPa | 0 mm | - | - | - |
| 1777412482 | 13.89° C | 37% | 1017.5 hPa | 0 mm | - | - | - |
| 1777411881 | 15° C | 36% | 1017.6 hPa | 0 mm | - | - | - |
| 1777411580 | 15.56° C | 36% | 1017.6 hPa | 0 mm | - | - | - |
| 1777410978 | 15° C | 36% | 1017.7 hPa | 0 mm | - | - | - |
* Rain since midnight (hover to see other rain measurements)
** Current wind speed in m/s (hover to see current wind gust speed)